owner,sensor,date,latitude,longitude,vertical_datum,wind_speed,wind_to_direction,wind_speed_of_gust,qcFlag 
TCOON,ioos:station:TCOON:518:1,2010-08-01T00:00:00Z,29.5150,-94.5133,0.0,99.0,-9999.0,99.0,'11144222,99999999,11144222' 
TCOON,ioos:station:TCOON:518:1,2010-08-01T01:00:00Z,29.5150,-94.5133,0.0,99.0,-9999.0,99.0,'11144222,99999999,11144222' 
TCOON,ioos:station:TCOON:518:1,2010-08-01T03:00:00Z,29.5150,-94.5133,0.0,99.0,-9999.0,99.0,'11144222,99999999,11144222' 
TCOON,ioos:station:TCOON:518:1,2010-08-01T04:00:00Z,29.5150,-94.5133,0.0,99.0,-9999.0,99.0,'11144222,99999999,11144222' 
TCOON,ioos:station:TCOON:518:1,2010-08-01T05:00:00Z,29.5150,-94.5133,0.0,99.0,-9999.0,99.0,'11144222,99999999,11144222' 
TCOON,ioos:station:TCOON:518:1,2010-08-01T06:00:00Z,29.5150,-94.5133,0.0,99.0,-9999.0,99.0,'11144222,99999999,11144222' 
TCOON,ioos:station:TCOON:518:1,2010-08-01T07:00:00Z,29.5150,-94.5133,0.0,99.0,-9999.0,99.0,'11144222,99999999,11144222' 
TCOON,ioos:station:TCOON:518:1,2010-08-01T08:00:00Z,29.5150,-94.5133,0.0,99.0,-9999.0,99.0,'11144222,99999999,11144222' 
TCOON,ioos:station:TCOON:518:1,2010-08-01T09:00:00Z,29.5150,-94.5133,0.0,99.0,-9999.0,99.0,'11144222,99999999,11144222' 
TCOON,ioos:station:TCOON:518:1,2010-08-01T10:00:00Z,29.5150,-94.5133,0.0,99.0,-9999.0,99.0,'11144222,99999999,11144222' 
TCOON,ioos:station:TCOON:518:1,2010-08-01T11:00:00Z,29.5150,-94.5133,0.0,99.0,-9999.0,99.0,'11144222,99999999,11144222' 
TCOON,ioos:station:TCOON:518:1,2010-08-01T12:00:00Z,29.5150,-94.5133,0.0,99.0,-9999.0,99.0,'11144222,99999999,11144222' 
TCOON,ioos:station:TCOON:518:1,2010-08-01T13:00:00Z,29.5150,-94.5133,0.0,99.0,-9999.0,99.0,'11144222,99999999,11144222' 
TCOON,ioos:station:TCOON:518:1,2010-08-01T14:00:00Z,29.5150,-94.5133,0.0,99.0,-9999.0,99.0,'11144222,99999999,11144222' 
TCOON,ioos:station:TCOON:518:1,2010-08-01T15:00:00Z,29.5150,-94.5133,0.0,99.0,-9999.0,99.0,'11144222,99999999,11144222' 
TCOON,ioos:station:TCOON:518:1,2010-08-01T16:00:00Z,29.5150,-94.5133,0.0,99.0,-9999.0,99.0,'11144222,99999999,11144222' 
TCOON,ioos:station:TCOON:518:1,2010-08-01T18:00:00Z,29.5150,-94.5133,0.0,99.0,-9999.0,99.0,'11144222,99999999,11144222' 
TCOON,ioos:station:TCOON:518:1,2010-08-01T19:00:00Z,29.5150,-94.5133,0.0,99.0,-9999.0,99.0,'11144222,99999999,11144222' 
TCOON,ioos:station:TCOON:518:1,2010-08-01T20:00:00Z,29.5150,-94.5133,0.0,99.0,-9999.0,99.0,'11144222,99999999,11144222' 
TCOON,ioos:station:TCOON:518:1,2010-08-01T21:00:00Z,29.5150,-94.5133,0.0,99.0,-9999.0,99.0,'11144222,99999999,11144222' 
TCOON,ioos:station:TCOON:518:1,2010-08-01T22:00:00Z,29.5150,-94.5133,0.0,99.0,-9999.0,99.0,'11144222,99999999,11144222' 
TCOON,ioos:station:TCOON:518:1,2010-08-01T23:00:00Z,29.5150,-94.5133,0.0,99.0,-9999.0,99.0,'11144222,99999999,11144222' 
TCOON,ioos:station:TCOON:518:1,2010-08-02T00:00:00Z,29.5150,-94.5133,0.0,99.0,-9999.0,99.0,'11144222,99999999,11144222' 
TCOON,ioos:station:TCOON:518:1,2010-08-02T01:00:00Z,29.5150,-94.5133,0.0,99.0,-9999.0,99.0,'11144222,99999999,11144222' 
TCOON,ioos:station:TCOON:518:1,2010-08-02T02:00:00Z,29.5150,-94.5133,0.0,99.0,-9999.0,99.0,'11144222,99999999,11144222' 
TCOON,ioos:station:TCOON:518:1,2010-08-02T03:00:00Z,29.5150,-94.5133,0.0,99.0,-9999.0,99.0,'11144222,99999999,11144222' 
TCOON,ioos:station:TCOON:518:1,2010-08-02T04:00:00Z,29.5150,-94.5133,0.0,99.0,-9999.0,99.0,'11144222,99999999,11144222' 
TCOON,ioos:station:TCOON:518:1,2010-08-02T05:00:00Z,29.5150,-94.5133,0.0,99.0,-9999.0,99.0,'11144222,99999999,11144222' 
TCOON,ioos:station:TCOON:518:1,2010-08-02T06:00:00Z,29.5150,-94.5133,0.0,99.0,-9999.0,99.0,'11144222,99999999,11144222' 
TCOON,ioos:station:TCOON:518:1,2010-08-02T07:00:00Z,29.5150,-94.5133,0.0,99.0,-9999.0,99.0,'11144222,99999999,11144222' 
TCOON,ioos:station:TCOON:518:1,2010-08-02T08:00:00Z,29.5150,-94.5133,0.0,99.0,-9999.0,99.0,'11144222,99999999,11144222' 
TCOON,ioos:station:TCOON:518:1,2010-08-02T09:00:00Z,29.5150,-94.5133,0.0,99.0,-9999.0,99.0,'11144222,99999999,11144222' 
TCOON,ioos:station:TCOON:518:1,2010-08-02T10:00:00Z,29.5150,-94.5133,0.0,99.0,-9999.0,99.0,'11144222,99999999,11144222' 
TCOON,ioos:station:TCOON:518:1,2010-08-02T11:00:00Z,29.5150,-94.5133,0.0,99.0,-9999.0,99.0,'11144222,99999999,11144222' 
TCOON,ioos:station:TCOON:518:1,2010-08-02T12:00:00Z,29.5150,-94.5133,0.0,99.0,-9999.0,99.0,'11144222,99999999,11144222' 
TCOON,ioos:station:TCOON:518:1,2010-08-02T13:00:00Z,29.5150,-94.5133,0.0,99.0,-9999.0,99.0,'11144222,99999999,11144222' 
TCOON,ioos:station:TCOON:518:1,2010-08-02T14:00:00Z,29.5150,-94.5133,0.0,99.0,-9999.0,99.0,'11144222,99999999,11144222' 
TCOON,ioos:station:TCOON:518:1,2010-08-02T15:00:00Z,29.5150,-94.5133,0.0,99.0,-9999.0,99.0,'11144222,99999999,11144222' 
TCOON,ioos:station:TCOON:518:1,2010-08-02T16:00:00Z,29.5150,-94.5133,0.0,99.0,-9999.0,99.0,'11144222,99999999,11144222' 
TCOON,ioos:station:TCOON:518:1,2010-08-02T17:00:00Z,29.5150,-94.5133,0.0,99.0,-9999.0,99.0,'11144222,99999999,11144222' 
TCOON,ioos:station:TCOON:518:1,2010-08-02T18:00:00Z,29.5150,-94.5133,0.0,99.0,-9999.0,99.0,'11144222,99999999,11144222' 
TCOON,ioos:station:TCOON:518:1,2010-08-02T19:00:00Z,29.5150,-94.5133,0.0,99.0,-9999.0,99.0,'11144222,99999999,11144222' 
TCOON,ioos:station:TCOON:518:1,2010-08-02T20:00:00Z,29.5150,-94.5133,0.0,99.0,-9999.0,99.0,'11144222,99999999,11144222' 
TCOON,ioos:station:TCOON:518:1,2010-08-02T21:00:00Z,29.5150,-94.5133,0.0,99.0,-9999.0,99.0,'11144222,99999999,11144222' 
TCOON,ioos:station:TCOON:518:1,2010-08-02T22:00:00Z,29.5150,-94.5133,0.0,99.0,-9999.0,99.0,'11144222,99999999,11144222' 
TCOON,ioos:station:TCOON:518:1,2010-08-02T23:00:00Z,29.5150,-94.5133,0.0,99.0,-9999.0,99.0,'11144222,99999999,11144222' 
TCOON,ioos:station:TCOON:518:1,2010-08-03T00:00:00Z,29.5150,-94.5133,0.0,99.0,-9999.0,99.0,'11144222,99999999,11144222' 
TCOON,ioos:station:TCOON:518:1,2010-08-03T01:00:00Z,29.5150,-94.5133,0.0,99.0,-9999.0,99.0,'11144222,99999999,11144222' 
TCOON,ioos:station:TCOON:518:1,2010-08-03T02:00:00Z,29.5150,-94.5133,0.0,99.0,-9999.0,99.0,'11144222,99999999,11144222' 
TCOON,ioos:station:TCOON:518:1,2010-08-03T03:00:00Z,29.5150,-94.5133,0.0,99.0,-9999.0,99.0,'11144222,99999999,11144222' 
TCOON,ioos:station:TCOON:518:1,2010-08-03T04:00:00Z,29.5150,-94.5133,0.0,99.0,-9999.0,99.0,'11144222,99999999,11144222' 
TCOON,ioos:station:TCOON:518:1,2010-08-03T05:00:00Z,29.5150,-94.5133,0.0,99.0,-9999.0,99.0,'11144222,99999999,11144222' 
TCOON,ioos:station:TCOON:518:1,2010-08-03T06:00:00Z,29.5150,-94.5133,0.0,99.0,-9999.0,99.0,'11144222,99999999,11144222' 
TCOON,ioos:station:TCOON:518:1,2010-08-03T07:00:00Z,29.5150,-94.5133,0.0,99.0,-9999.0,99.0,'11144222,99999999,11144222' 
TCOON,ioos:station:TCOON:518:1,2010-08-03T08:00:00Z,29.5150,-94.5133,0.0,99.0,-9999.0,99.0,'11144222,99999999,11144222' 
TCOON,ioos:station:TCOON:518:1,2010-08-03T09:00:00Z,29.5150,-94.5133,0.0,99.0,-9999.0,99.0,'11144222,99999999,11144222' 
TCOON,ioos:station:TCOON:518:1,2010-08-03T10:00:00Z,29.5150,-94.5133,0.0,99.0,-9999.0,99.0,'11144222,99999999,11144222' 
TCOON,ioos:station:TCOON:518:1,2010-08-03T11:00:00Z,29.5150,-94.5133,0.0,99.0,-9999.0,99.0,'11144222,99999999,11144222' 
TCOON,ioos:station:TCOON:518:1,2010-08-03T12:00:00Z,29.5150,-94.5133,0.0,99.0,-9999.0,99.0,'11144222,99999999,11144222' 
TCOON,ioos:station:TCOON:518:1,2010-08-03T13:00:00Z,29.5150,-94.5133,0.0,99.0,-9999.0,99.0,'11144222,99999999,11144222' 
TCOON,ioos:station:TCOON:518:1,2010-08-03T14:00:00Z,29.5150,-94.5133,0.0,99.0,-9999.0,99.0,'11144222,99999999,11144222' 
TCOON,ioos:station:TCOON:518:1,2010-08-03T15:00:00Z,29.5150,-94.5133,0.0,99.0,-9999.0,99.0,'11144222,99999999,11144222' 
TCOON,ioos:station:TCOON:518:1,2010-08-06T18:00:00Z,29.5150,-94.5133,0.0,99.0,-9999.0,99.0,'11144222,99999999,11144222' 
TCOON,ioos:station:TCOON:518:1,2010-08-06T19:00:00Z,29.5150,-94.5133,0.0,99.0,-9999.0,99.0,'11144222,99999999,11144222' 
TCOON,ioos:station:TCOON:518:1,2010-08-06T20:00:00Z,29.5150,-94.5133,0.0,99.0,-9999.0,99.0,'11144222,99999999,11144222' 
TCOON,ioos:station:TCOON:518:1,2010-08-06T21:00:00Z,29.5150,-94.5133,0.0,99.0,-9999.0,99.0,'11144222,99999999,11144222' 
TCOON,ioos:station:TCOON:518:1,2010-08-06T22:00:00Z,29.5150,-94.5133,0.0,99.0,-9999.0,99.0,'11144222,99999999,11144222' 
TCOON,ioos:station:TCOON:518:1,2010-08-06T23:00:00Z,29.5150,-94.5133,0.0,99.0,-9999.0,99.0,'11144222,99999999,11144222' 
TCOON,ioos:station:TCOON:518:1,2010-08-07T00:00:00Z,29.5150,-94.5133,0.0,99.0,-9999.0,99.0,'11144222,99999999,11144222' 
TCOON,ioos:station:TCOON:518:1,2010-08-07T01:00:00Z,29.5150,-94.5133,0.0,99.0,-9999.0,99.0,'11144222,99999999,11144222' 
TCOON,ioos:station:TCOON:518:1,2010-08-07T02:00:00Z,29.5150,-94.5133,0.0,99.0,-9999.0,99.0,'11144222,99999999,11144222' 
TCOON,ioos:station:TCOON:518:1,2010-08-07T03:00:00Z,29.5150,-94.5133,0.0,99.0,-9999.0,99.0,'11144222,99999999,11144222' 
TCOON,ioos:station:TCOON:518:1,2010-08-07T04:00:00Z,29.5150,-94.5133,0.0,99.0,-9999.0,99.0,'11144222,99999999,11144222' 
TCOON,ioos:station:TCOON:518:1,2010-08-07T05:00:00Z,29.5150,-94.5133,0.0,99.0,-9999.0,99.0,'11144222,99999999,11144222' 
TCOON,ioos:station:TCOON:518:1,2010-08-07T06:00:00Z,29.5150,-94.5133,0.0,99.0,-9999.0,99.0,'11144222,99999999,11144222' 
TCOON,ioos:station:TCOON:518:1,2010-08-07T07:00:00Z,29.5150,-94.5133,0.0,99.0,-9999.0,99.0,'11144222,99999999,11144222' 
TCOON,ioos:station:TCOON:518:1,2010-08-07T08:00:00Z,29.5150,-94.5133,0.0,99.0,-9999.0,99.0,'11144222,99999999,11144222' 
TCOON,ioos:station:TCOON:518:1,2010-08-07T09:00:00Z,29.5150,-94.5133,0.0,99.0,-9999.0,99.0,'11144222,99999999,11144222' 
TCOON,ioos:station:TCOON:518:1,2010-08-07T10:00:00Z,29.5150,-94.5133,0.0,99.0,-9999.0,99.0,'11144222,99999999,11144222' 
TCOON,ioos:station:TCOON:518:1,2010-08-07T11:00:00Z,29.5150,-94.5133,0.0,99.0,-9999.0,99.0,'11144222,99999999,11144222' 
TCOON,ioos:station:TCOON:518:1,2010-08-07T12:00:00Z,29.5150,-94.5133,0.0,99.0,-9999.0,99.0,'11144222,99999999,11144222' 
TCOON,ioos:station:TCOON:518:1,2010-08-07T13:00:00Z,29.5150,-94.5133,0.0,99.0,-9999.0,99.0,'11144222,99999999,11144222' 
TCOON,ioos:station:TCOON:518:1,2010-08-07T14:00:00Z,29.5150,-94.5133,0.0,99.0,-9999.0,99.0,'11144222,99999999,11144222' 
TCOON,ioos:station:TCOON:518:1,2010-08-07T15:00:00Z,29.5150,-94.5133,0.0,99.0,-9999.0,99.0,'11144222,99999999,11144222' 
TCOON,ioos:station:TCOON:518:1,2010-08-07T16:00:00Z,29.5150,-94.5133,0.0,99.0,-9999.0,99.0,'11144222,99999999,11144222' 
TCOON,ioos:station:TCOON:518:1,2010-08-07T17:00:00Z,29.5150,-94.5133,0.0,99.0,-9999.0,99.0,'11144222,99999999,11144222' 
TCOON,ioos:station:TCOON:518:1,2010-08-07T18:00:00Z,29.5150,-94.5133,0.0,99.0,-9999.0,99.0,'11144222,99999999,11144222' 
TCOON,ioos:station:TCOON:518:1,2010-08-07T19:00:00Z,29.5150,-94.5133,0.0,99.0,-9999.0,99.0,'11144222,99999999,11144222' 
TCOON,ioos:station:TCOON:518:1,2010-08-07T20:00:00Z,29.5150,-94.5133,0.0,99.0,-9999.0,99.0,'11144222,99999999,11144222' 
TCOON,ioos:station:TCOON:518:1,2010-08-07T21:00:00Z,29.5150,-94.5133,0.0,99.0,-9999.0,99.0,'11144222,99999999,11144222' 
TCOON,ioos:station:TCOON:518:1,2010-08-07T22:00:00Z,29.5150,-94.5133,0.0,99.0,-9999.0,99.0,'11144222,99999999,11144222' 
TCOON,ioos:station:TCOON:518:1,2010-08-07T23:00:00Z,29.5150,-94.5133,0.0,99.0,-9999.0,99.0,'11144222,99999999,11144222' 
TCOON,ioos:station:TCOON:518:1,2010-08-08T00:00:00Z,29.5150,-94.5133,0.0,99.0,-9999.0,99.0,'11144222,99999999,11144222' 
TCOON,ioos:station:TCOON:518:1,2010-08-08T01:00:00Z,29.5150,-94.5133,0.0,99.0,-9999.0,99.0,'11144222,99999999,11144222' 
TCOON,ioos:station:TCOON:518:1,2010-08-08T02:00:00Z,29.5150,-94.5133,0.0,99.0,-9999.0,99.0,'11144222,99999999,11144222' 
TCOON,ioos:station:TCOON:518:1,2010-08-08T03:00:00Z,29.5150,-94.5133,0.0,99.0,-9999.0,99.0,'11144222,99999999,11144222' 
TCOON,ioos:station:TCOON:518:1,2010-08-08T04:00:00Z,29.5150,-94.5133,0.0,99.0,-9999.0,99.0,'11144222,99999999,11144222' 
TCOON,ioos:station:TCOON:518:1,2010-08-08T05:00:00Z,29.5150,-94.5133,0.0,99.0,-9999.0,99.0,'11144222,99999999,11144222' 
TCOON,ioos:station:TCOON:518:1,2010-08-08T06:00:00Z,29.5150,-94.5133,0.0,99.0,-9999.0,99.0,'11144222,99999999,11144222' 
TCOON,ioos:station:TCOON:518:1,2010-08-08T07:00:00Z,29.5150,-94.5133,0.0,99.0,-9999.0,99.0,'11144222,99999999,11144222' 
TCOON,ioos:station:TCOON:518:1,2010-08-08T08:00:00Z,29.5150,-94.5133,0.0,99.0,-9999.0,99.0,'11144222,99999999,11144222' 
TCOON,ioos:station:TCOON:518:1,2010-08-08T09:00:00Z,29.5150,-94.5133,0.0,99.0,-9999.0,99.0,'11144222,99999999,11144222' 
TCOON,ioos:station:TCOON:518:1,2010-08-08T10:00:00Z,29.5150,-94.5133,0.0,99.0,-9999.0,99.0,'11144222,99999999,11144222' 
TCOON,ioos:station:TCOON:518:1,2010-08-08T11:00:00Z,29.5150,-94.5133,0.0,99.0,-9999.0,99.0,'11144222,99999999,11144222' 
TCOON,ioos:station:TCOON:518:1,2010-08-08T12:00:00Z,29.5150,-94.5133,0.0,99.0,-9999.0,99.0,'11144222,99999999,11144222' 
TCOON,ioos:station:TCOON:518:1,2010-08-08T13:00:00Z,29.5150,-94.5133,0.0,99.0,-9999.0,99.0,'11144222,99999999,11144222' 
TCOON,ioos:station:TCOON:518:1,2010-08-08T14:00:00Z,29.5150,-94.5133,0.0,99.0,-9999.0,99.0,'11144222,99999999,11144222' 
TCOON,ioos:station:TCOON:518:1,2010-08-08T15:00:00Z,29.5150,-94.5133,0.0,99.0,-9999.0,99.0,'11144222,99999999,11144222' 
TCOON,ioos:station:TCOON:518:1,2010-08-08T16:00:00Z,29.5150,-94.5133,0.0,99.0,-9999.0,99.0,'11144222,99999999,11144222' 
TCOON,ioos:station:TCOON:518:1,2010-08-08T17:00:00Z,29.5150,-94.5133,0.0,99.0,-9999.0,99.0,'11144222,99999999,11144222' 
TCOON,ioos:station:TCOON:518:1,2010-08-08T18:00:00Z,29.5150,-94.5133,0.0,99.0,-9999.0,99.0,'11144222,99999999,11144222' 
TCOON,ioos:station:TCOON:518:1,2010-08-08T19:00:00Z,29.5150,-94.5133,0.0,99.0,-9999.0,99.0,'11144222,99999999,11144222' 
TCOON,ioos:station:TCOON:518:1,2010-08-08T20:00:00Z,29.5150,-94.5133,0.0,99.0,-9999.0,99.0,'11144222,99999999,11144222' 
TCOON,ioos:station:TCOON:518:1,2010-08-08T21:00:00Z,29.5150,-94.5133,0.0,99.0,-9999.0,99.0,'11144222,99999999,11144222' 
TCOON,ioos:station:TCOON:518:1,2010-08-08T22:00:00Z,29.5150,-94.5133,0.0,99.0,-9999.0,99.0,'11144222,99999999,11144222' 
TCOON,ioos:station:TCOON:518:1,2010-08-08T23:00:00Z,29.5150,-94.5133,0.0,99.0,-9999.0,99.0,'11144222,99999999,11144222' 
TCOON,ioos:station:TCOON:518:1,2010-08-09T00:00:00Z,29.5150,-94.5133,0.0,99.0,-9999.0,99.0,'11144222,99999999,11144222' 
TCOON,ioos:station:TCOON:518:1,2010-08-09T01:00:00Z,29.5150,-94.5133,0.0,99.0,-9999.0,99.0,'11144222,99999999,11144222' 
TCOON,ioos:station:TCOON:518:1,2010-08-09T02:00:00Z,29.5150,-94.5133,0.0,99.0,-9999.0,99.0,'11144222,99999999,11144222' 
TCOON,ioos:station:TCOON:518:1,2010-08-09T03:00:00Z,29.5150,-94.5133,0.0,99.0,-9999.0,99.0,'11144222,99999999,11144222' 
TCOON,ioos:station:TCOON:518:1,2010-08-09T04:00:00Z,29.5150,-94.5133,0.0,99.0,-9999.0,99.0,'11144222,99999999,11144222' 
TCOON,ioos:station:TCOON:518:1,2010-08-09T05:00:00Z,29.5150,-94.5133,0.0,99.0,-9999.0,99.0,'11144222,99999999,11144222' 
TCOON,ioos:station:TCOON:518:1,2010-08-09T06:00:00Z,29.5150,-94.5133,0.0,99.0,-9999.0,99.0,'11144222,99999999,11144222' 
TCOON,ioos:station:TCOON:518:1,2010-08-09T07:00:00Z,29.5150,-94.5133,0.0,99.0,-9999.0,99.0,'11144222,99999999,11144222' 
TCOON,ioos:station:TCOON:518:1,2010-08-09T08:00:00Z,29.5150,-94.5133,0.0,99.0,-9999.0,99.0,'11144222,99999999,11144222' 
TCOON,ioos:station:TCOON:518:1,2010-08-09T09:00:00Z,29.5150,-94.5133,0.0,99.0,-9999.0,99.0,'11144222,99999999,11144222' 
TCOON,ioos:station:TCOON:518:1,2010-08-09T10:00:00Z,29.5150,-94.5133,0.0,99.0,-9999.0,99.0,'11144222,99999999,11144222' 
TCOON,ioos:station:TCOON:518:1,2010-08-09T11:00:00Z,29.5150,-94.5133,0.0,99.0,-9999.0,99.0,'11144222,99999999,11144222' 
TCOON,ioos:station:TCOON:518:1,2010-08-09T12:00:00Z,29.5150,-94.5133,0.0,99.0,-9999.0,99.0,'11144222,99999999,11144222' 
TCOON,ioos:station:TCOON:518:1,2010-08-09T13:00:00Z,29.5150,-94.5133,0.0,99.0,-9999.0,99.0,'11144222,99999999,11144222' 
TCOON,ioos:station:TCOON:518:1,2010-08-09T14:00:00Z,29.5150,-94.5133,0.0,99.0,-9999.0,99.0,'11144222,99999999,11144222' 
TCOON,ioos:station:TCOON:518:1,2010-08-09T15:00:00Z,29.5150,-94.5133,0.0,99.0,-9999.0,99.0,'11144222,99999999,11144222' 
TCOON,ioos:station:TCOON:518:1,2010-08-09T16:00:00Z,29.5150,-94.5133,0.0,99.0,-9999.0,99.0,'11144222,99999999,11144222' 
TCOON,ioos:station:TCOON:518:1,2010-08-09T17:00:00Z,29.5150,-94.5133,0.0,99.0,-9999.0,99.0,'11144222,99999999,11144222' 
TCOON,ioos:station:TCOON:518:1,2010-08-09T18:00:00Z,29.5150,-94.5133,0.0,99.0,-9999.0,99.0,'11144222,99999999,11144222' 
TCOON,ioos:station:TCOON:518:1,2010-08-09T19:00:00Z,29.5150,-94.5133,0.0,99.0,-9999.0,99.0,'11144222,99999999,11144222' 
TCOON,ioos:station:TCOON:518:1,2010-08-09T20:00:00Z,29.5150,-94.5133,0.0,99.0,-9999.0,99.0,'11144222,99999999,11144222' 
TCOON,ioos:station:TCOON:518:1,2010-08-09T21:00:00Z,29.5150,-94.5133,0.0,99.0,-9999.0,99.0,'11144222,99999999,11144222' 
TCOON,ioos:station:TCOON:518:1,2010-08-09T22:00:00Z,29.5150,-94.5133,0.0,99.0,-9999.0,99.0,'11144222,99999999,11144222' 
TCOON,ioos:station:TCOON:518:1,2010-08-09T23:00:00Z,29.5150,-94.5133,0.0,99.0,-9999.0,99.0,'11144222,99999999,11144222' 
TCOON,ioos:station:TCOON:518:1,2010-08-10T00:00:00Z,29.5150,-94.5133,0.0,99.0,-9999.0,99.0,'11144222,99999999,11144222' 
TCOON,ioos:station:TCOON:518:1,2010-08-10T01:00:00Z,29.5150,-94.5133,0.0,99.0,-9999.0,99.0,'11144222,99999999,11144222' 
TCOON,ioos:station:TCOON:518:1,2010-08-10T02:00:00Z,29.5150,-94.5133,0.0,99.0,-9999.0,99.0,'11144222,99999999,11144222' 
TCOON,ioos:station:TCOON:518:1,2010-08-10T03:00:00Z,29.5150,-94.5133,0.0,99.0,-9999.0,99.0,'11144222,99999999,11144222' 
TCOON,ioos:station:TCOON:518:1,2010-08-10T04:00:00Z,29.5150,-94.5133,0.0,99.0,-9999.0,99.0,'11144222,99999999,11144222' 
TCOON,ioos:station:TCOON:518:1,2010-08-10T05:00:00Z,29.5150,-94.5133,0.0,99.0,-9999.0,99.0,'11144222,99999999,11144222' 
TCOON,ioos:station:TCOON:518:1,2010-08-10T06:00:00Z,29.5150,-94.5133,0.0,99.0,-9999.0,99.0,'11144222,99999999,11144222' 
TCOON,ioos:station:TCOON:518:1,2010-08-10T07:00:00Z,29.5150,-94.5133,0.0,99.0,-9999.0,99.0,'11144222,99999999,11144222' 
TCOON,ioos:station:TCOON:518:1,2010-08-10T08:00:00Z,29.5150,-94.5133,0.0,99.0,-9999.0,99.0,'11144222,99999999,11144222' 
TCOON,ioos:station:TCOON:518:1,2010-08-10T09:00:00Z,29.5150,-94.5133,0.0,99.0,-9999.0,99.0,'11144222,99999999,11144222' 
TCOON,ioos:station:TCOON:518:1,2010-08-10T10:00:00Z,29.5150,-94.5133,0.0,99.0,-9999.0,99.0,'11144222,99999999,11144222' 
TCOON,ioos:station:TCOON:518:1,2010-08-10T11:00:00Z,29.5150,-94.5133,0.0,99.0,-9999.0,99.0,'11144222,99999999,11144222' 
TCOON,ioos:station:TCOON:518:1,2010-08-10T12:00:00Z,29.5150,-94.5133,0.0,99.0,-9999.0,99.0,'11144222,99999999,11144222' 
TCOON,ioos:station:TCOON:518:1,2010-08-10T13:00:00Z,29.5150,-94.5133,0.0,99.0,-9999.0,99.0,'11144222,99999999,11144222' 
TCOON,ioos:station:TCOON:518:1,2010-08-10T14:00:00Z,29.5150,-94.5133,0.0,99.0,-9999.0,99.0,'11144222,99999999,11144222' 
TCOON,ioos:station:TCOON:518:1,2010-08-10T15:00:00Z,29.5150,-94.5133,0.0,99.0,-9999.0,99.0,'11144222,99999999,11144222' 
TCOON,ioos:station:TCOON:518:1,2010-08-10T16:00:00Z,29.5150,-94.5133,0.0,99.0,-9999.0,99.0,'11144222,99999999,11144222' 
TCOON,ioos:station:TCOON:518:1,2010-08-10T17:00:00Z,29.5150,-94.5133,0.0,99.0,-9999.0,99.0,'11144222,99999999,11144222' 
TCOON,ioos:station:TCOON:518:1,2010-08-10T18:00:00Z,29.5150,-94.5133,0.0,99.0,-9999.0,99.0,'11144222,99999999,11144222' 
TCOON,ioos:station:TCOON:518:1,2010-08-10T19:00:00Z,29.5150,-94.5133,0.0,99.0,-9999.0,99.0,'11144222,99999999,11144222' 
TCOON,ioos:station:TCOON:518:1,2010-08-10T20:00:00Z,29.5150,-94.5133,0.0,99.0,-9999.0,99.0,'11144222,99999999,11144222' 
TCOON,ioos:station:TCOON:518:1,2010-08-10T21:00:00Z,29.5150,-94.5133,0.0,99.0,-9999.0,99.0,'11144222,99999999,11144222' 
TCOON,ioos:station:TCOON:518:1,2010-08-10T22:00:00Z,29.5150,-94.5133,0.0,99.0,-9999.0,99.0,'11144222,99999999,11144222' 
TCOON,ioos:station:TCOON:518:1,2010-08-10T23:00:00Z,29.5150,-94.5133,0.0,99.0,-9999.0,99.0,'11144222,99999999,11144222' 
TCOON,ioos:station:TCOON:518:1,2010-08-11T00:00:00Z,29.5150,-94.5133,0.0,99.0,-9999.0,99.0,'11144222,99999999,11144222' 
TCOON,ioos:station:TCOON:518:1,2010-08-11T01:00:00Z,29.5150,-94.5133,0.0,99.0,-9999.0,99.0,'11144222,99999999,11144222' 
TCOON,ioos:station:TCOON:518:1,2010-08-11T02:00:00Z,29.5150,-94.5133,0.0,99.0,-9999.0,99.0,'11144222,99999999,11144222' 
TCOON,ioos:station:TCOON:518:1,2010-08-11T03:00:00Z,29.5150,-94.5133,0.0,99.0,-9999.0,99.0,'11144222,99999999,11144222' 
TCOON,ioos:station:TCOON:518:1,2010-08-11T04:00:00Z,29.5150,-94.5133,0.0,99.0,-9999.0,99.0,'11144222,99999999,11144222' 
TCOON,ioos:station:TCOON:518:1,2010-08-11T05:00:00Z,29.5150,-94.5133,0.0,99.0,-9999.0,99.0,'11144222,99999999,11144222' 
TCOON,ioos:station:TCOON:518:1,2010-08-11T06:00:00Z,29.5150,-94.5133,0.0,99.0,-9999.0,99.0,'11144222,99999999,11144222' 
TCOON,ioos:station:TCOON:518:1,2010-08-11T07:00:00Z,29.5150,-94.5133,0.0,99.0,-9999.0,99.0,'11144222,99999999,11144222' 
TCOON,ioos:station:TCOON:518:1,2010-08-11T08:00:00Z,29.5150,-94.5133,0.0,99.0,-9999.0,99.0,'11144222,99999999,11144222' 
TCOON,ioos:station:TCOON:518:1,2010-08-11T09:00:00Z,29.5150,-94.5133,0.0,99.0,-9999.0,99.0,'11144222,99999999,11144222' 
TCOON,ioos:station:TCOON:518:1,2010-08-11T10:00:00Z,29.5150,-94.5133,0.0,99.0,-9999.0,99.0,'11144222,99999999,11144222' 
TCOON,ioos:station:TCOON:518:1,2010-08-11T11:00:00Z,29.5150,-94.5133,0.0,99.0,-9999.0,99.0,'11144222,99999999,11144222' 
TCOON,ioos:station:TCOON:518:1,2010-08-11T12:00:00Z,29.5150,-94.5133,0.0,99.0,-9999.0,99.0,'11144222,99999999,11144222' 
TCOON,ioos:station:TCOON:518:1,2010-08-11T13:00:00Z,29.5150,-94.5133,0.0,99.0,-9999.0,99.0,'11144222,99999999,11144222' 
TCOON,ioos:station:TCOON:518:1,2010-08-11T14:00:00Z,29.5150,-94.5133,0.0,99.0,-9999.0,99.0,'11144222,99999999,11144222' 
TCOON,ioos:station:TCOON:518:1,2010-08-11T15:00:00Z,29.5150,-94.5133,0.0,99.0,-9999.0,99.0,'11144222,99999999,11144222' 
TCOON,ioos:station:TCOON:518:1,2010-08-11T16:00:00Z,29.5150,-94.5133,0.0,99.0,-9999.0,99.0,'11144222,99999999,11144222' 
TCOON,ioos:station:TCOON:518:1,2010-08-11T17:00:00Z,29.5150,-94.5133,0.0,99.0,-9999.0,99.0,'11144222,99999999,11144222' 
TCOON,ioos:station:TCOON:518:1,2010-08-11T18:00:00Z,29.5150,-94.5133,0.0,99.0,-9999.0,99.0,'11144222,99999999,11144222' 
TCOON,ioos:station:TCOON:518:1,2010-08-11T19:00:00Z,29.5150,-94.5133,0.0,99.0,-9999.0,99.0,'11144222,99999999,11144222' 
TCOON,ioos:station:TCOON:518:1,2010-08-11T20:00:00Z,29.5150,-94.5133,0.0,99.0,-9999.0,99.0,'11144222,99999999,11144222' 
TCOON,ioos:station:TCOON:518:1,2010-08-11T21:00:00Z,29.5150,-94.5133,0.0,2.1,250.0,3.1,'1111122,1111122,1111122' 
TCOON,ioos:station:TCOON:518:1,2010-08-11T22:00:00Z,29.5150,-94.5133,0.0,1.9,234.0,3.1,'11111222,11111222,11111222' 
TCOON,ioos:station:TCOON:518:1,2010-08-11T23:00:00Z,29.5150,-94.5133,0.0,2.4,213.0,3.1,'11111222,11111222,11111222' 
TCOON,ioos:station:TCOON:518:1,2010-08-12T00:00:00Z,29.5150,-94.5133,0.0,2.7,198.0,3.7,'11111222,11111222,11111222' 
TCOON,ioos:station:TCOON:518:1,2010-08-12T01:00:00Z,29.5150,-94.5133,0.0,2.0,199.0,2.9,'11111222,11111222,11111222' 
TCOON,ioos:station:TCOON:518:1,2010-08-12T02:00:00Z,29.5150,-94.5133,0.0,1.3,209.0,2.0,'11111222,11111222,11111222' 
TCOON,ioos:station:TCOON:518:1,2010-08-12T03:00:00Z,29.5150,-94.5133,0.0,1.7,225.0,2.2,'11111222,11111222,11111222' 
TCOON,ioos:station:TCOON:518:1,2010-08-12T04:00:00Z,29.5150,-94.5133,0.0,2.0,227.0,2.5,'11111222,11111222,11111222' 
TCOON,ioos:station:TCOON:518:1,2010-08-12T05:00:00Z,29.5150,-94.5133,0.0,1.5,222.0,2.3,'11111222,11111222,11111222' 
TCOON,ioos:station:TCOON:518:1,2010-08-12T06:00:00Z,29.5150,-94.5133,0.0,3.3,180.0,5.1,'11111222,11111222,11111222' 
TCOON,ioos:station:TCOON:518:1,2010-08-12T07:00:00Z,29.5150,-94.5133,0.0,1.8,186.0,3.6,'11111222,11111222,11111222' 
TCOON,ioos:station:TCOON:518:1,2010-08-12T08:00:00Z,29.5150,-94.5133,0.0,2.0,215.0,2.5,'11111222,11111222,11111222' 